Regional Weather Roundup
Issued by NWS Northern Indiana

Home | Current Version | Previous Version | Graphics & Text | Print | Product List | Glossary On
Versions: 1 2 3 4 5 6 7 8 9 10 11 12 13 14 15 16 17 18 19 20 21 22 23 24 25 26 27 28 29 30 31 32 33 34 35 36 37 38 39 40 41 42 43 44 45 46 47 48 49 50
000
ASUS43 KIWX 030700
RWRIWX

KIWX WEATHER ROUNDUP
NATIONAL WEATHER SERVICE NORTHERN INDIANA
300 AM EDT THU SEP 03 2015

NOTE: "FAIR" INDICATES FEW OR NO CLOUDS BELOW 12,000 FEET WITH NO
SIGNIFICANT WEATHER AND/OR OBSTRUCTIONS TO VISIBILITY.

* THESE STATIONS ARE NOT UNDER NWS QUALITY CONTROL. THEY ALSO MAY NOT
  REPORT WEATHER SUCH AS PRECIPITATION OR FOG.

INZ001>027-030800-
NORTHERN INDIANA

CITY           SKY/WX    TMP DP  RH WIND       PRES   REMARKS
KNOX*          PTCLDY    72  70  94 S5        29.98S
SOUTH BEND     PTCLDY    73  68  84 SW6       29.98F
GOSHEN         PTCLDY    72  68  87 S3        29.99F
MONTICELLO*    PTCLDY    72  70  94 S5        29.99F
ANGOLA*        CLOUDY    70  61  73 CALM      30.00F VSB 1/2
FORT WAYNE     MOCLDY    70  67  90 CALM      30.00F
PERU/GRISSOM   PTCLDY    71  67  88 SW3       29.99F

$$
INZ028>050-030800-
CENTRAL INDIANA

CITY           SKY/WX    TMP DP  RH WIND       PRES   REMARKS
LAFAYETTE      CLEAR     69  66  90 CALM      29.99F
KOKOMO*        PTCLDY    68  63  83 SW3       30.01F
MUNCIE*        CLEAR     68  66  93 W3        30.01F
INDIANAPOLIS   CLEAR     71  68  90 W6        30.00F

$$
MIZ043>046-050>051-056>058-064>065-071>073-077>080-030800-
SOUTHWEST LOWER MICHIGAN

CITY           SKY/WX    TMP DP  RH WIND       PRES   REMARKS
BATTLE CREEK   PTCLDY    73  69  87 S5        29.99F
BENTON HARBOR  PTCLDY    69  67  93 CALM      29.96F FOG
COLDWATER*     PTCLDY    70  70  98 CALM      29.99F
HILLSDALE*     MOCLDY    68  68 100 CALM      30.01S FOG
HOLLAND        CLEAR     68  65  90 SE3       29.96F
GRAND RAPIDS   MOCLDY    73  70  90 S5        29.96F
KALAMAZOO      CLEAR     70  67  90 S3        29.98F
STURGIS*       CLEAR     68  66  94 CALM      29.99F
THREE RIVERS*  FAIR      68  67  97 CALM      29.98F FOG

$$
OHZ001>008-015>018-024>025-030800-
NORTHWEST OHIO

CITY           SKY/WX    TMP DP  RH WIND       PRES   REMARKS
DEFIANCE       CLOUDY    73  66  78 SW3       29.99F
FINDLAY        PTCLDY    71  65  81 CALM      29.98F
TOLEDO EXPRESS MOCLDY    72  68  87 W3        29.97F
TOLEDO METCALF PTCLDY    73  68  84 SW3       29.98F
LIMA           PTCLDY    70  67  90 S3        30.00F

$$
AND FOR LAKE MICHIGAN COASTAL AND OPEN LAKE BUOY OBSERVATIONS

STATION/POSITION TEMP    WIND        PRES    VSBY  WAVE
                 AIR SEA DIR/SP/G                  HT/PER
                 (F)     (DEG/KT/KT) (MB)    (MI)  (FT/S)
CALUMET HARBOR    78     210/  3/  5   N/A
MICHIGAN CITY     78     170/ 11/ 13   N/A
BURNS HARBOR      76     190/  9/ 12 1015.6R
SAINT JOSEPH      76     130/  3/  7 1015.9R
SOUTH LAKE BUOY   74 71  200/  6/  6 1013.2F         0
4 MI NW BRIDGMAN  75 74  230/  6/  8   N/A           0
MICHIGAN CITY     76 73  210/  6/  8   N/A           1

$$
&&



USA.gov is the U.S. government's official web portal to all federal, state and local government web resources and services.